Wind_Speed
32 32 33 34 34 35 36 36 36 37 37 38 38 39 39 39 40 40 40 40 40 41 41 41 42 42 43 43 43 44 44 44 44 44 44 45 45 45 46 46 47 48 48
35 36 37 37 39 40 40 41 41 41 42 42 43 44 44 44 44 44 44 44 44 45 45 45 46 46 46 46 47 47 47 47 47 47 47 47 48 48 48 49 49 50 50
38 39 40 41 42 44 44 45 45 46 46 47 48 48 48 48 48 48 48 48 48 49 49 49 49 50 50 50 50 50 50 50 50 50 50 50 50 50 51 51 51 52 52
40 41 42 44 46 46 47 47 48 49 50 51 51 52 52 52 51 52 52 51 52 52 52 53 53 53 53 53 53 53 52 52 52 52 52 53 53 53 53 53 53 53 54
42 43 44 45 47 48 49 50 50 51 52 53 54 55 55 54 54 55 54 54 55 55 55 56 56 56 56 56 56 55 55 55 55 54 54 55 55 54 54 54 54 54 55
43 44 45 46 48 49 50 52 52 53 54 55 56 56 56 57 57 57 56 57 57 58 58 58 59 58 58 58 58 58 58 57 57 56 56 56 56 55 55 54 54 55 55
43 45 46 47 49 50 52 53 54 55 56 57 58 58 58 59 59 58 59 59 59 60 60 61 61 61 61 61 61 61 60 60 59 58 58 57 57 56 56 55 55 55 55
44 45 47 48 50 51 53 54 56 57 58 59 61 62 61 60 60 61 62 62 62 62 63 63 63 64 64 64 64 63 62 61 60 60 59 59 58 57 56 55 55 55 55
44 45 47 49 50 52 53 55 57 59 60 61 63 64 65 63 62 63 64 64 65 65 65 65 66 66 67 67 66 65 64 63 62 61 60 59 58 57 56 55 55 55 55
44 46 47 49 51 52 54 56 58 60 62 63 64 66 67 67 67 65 64 65 66 67 67 67 68 69 69 69 68 67 66 65 63 63 62 61 59 58 57 56 55 55 55
45 47 49 51 53 55 56 58 60 62 64 65 67 68 69 70 71 71 68 67 68 68 69 70 70 71 71 71 70 70 69 68 66 65 64 63 61 60 59 58 57 56 56
47 49 51 53 55 57 59 61 63 65 67 68 69 71 71 72 73 74 73 71 71 70 71 71 72 72 72 72 72 71 71 70 69 68 66 64 63 61 60 59 58 57 57
50 53 55 57 60 62 64 66 67 68 70 71 72 73 74 75 76 76 77 75 74 73 73 72 72 72 73 73 73 73 72 72 71 70 68 66 65 63 62 60 59 58 58
56 58 61 63 65 67 69 71 72 73 74 75 75 76 77 77 78 79 79 79 78 76 75 73 73 73 74 74 74 75 74 73 73 72 70 68 66 64 63 61 60 60 59
63 65 67 69 71 73 75 76 77 78 79 79 80 80 80 80 81 81 81 81 81 79 75 74 75 74 75 75 75 76 75 74 73 72 70 68 66 65 64 63 62 61 60
69 71 74 76 78 79 80 81 82 82 82 82 83 83 82 82 82 82 82 82 82 82 78 73 75 75 75 75 75 75 74 74 74 72 70 69 67 66 65 64 64 63 62
75 77 79 81 82 83 84 84 85 85 85 85 85 85 84 83 83 82 82 82 82 81 79 74 75 75 75 74 74 74 73 73 72 72 71 70 68 67 66 66 65 65 64
80 82 83 84 85 85 85 85 85 85 85 85 84 84 84 83 83 82 81 81 80 79 78 74 73 74 73 73 73 73 72 72 71 71 71 70 69 68 67 67 66 66 66
83 84 85 86 86 85 85 85 84 84 83 82 82 81 80 80 79 78 78 77 76 76 75 73 70 71 71 71 71 71 71 70 70 69 69 69 69 68 68 67 66 66 66
86 86 86 86 85 85 83 82 82 81 79 78 76 75 75 74 74 73 73 72 72 71 71 70 68 68 68 68 69 69 69 69 69 69 69 68 67 67 67 67 67 67 67
87 87 86 85 83 81 79 78 76 74 72 71 69 68 68 68 67 67 67 66 66 66 66 66 64 64 65 65 66 67 68 68 68 68 68 68 68 68 68 67 67 68 68
86 85 83 81 78 75 73 71 69 67 65 64 62 62 61 61 61 61 61 61 61 61 61 61 61 60 60 61 63 64 64 65 64 65 67 67 67 66 66 67 68 68 68
84 81 77 74 71 68 66 64 62 61 59 58 57 57 56 56 56 56 57 57 57 58 58 58 58 57 58 59 60 61 62 62 63 64 65 64 65 65 66 66 67 68 68
79 75 71 68 65 62 60 59 59 58 56 55 54 53 52 52 52 53 53 53 53 54 54 55 55 54 56 58 59 60 61 61 61 62 62 62 63 64 64 64 65 65 66
72 68 64 62 60 57 57 56 55 53 52 50 50 49 49 48 49 49 49 49 49 50 51 52 53 53 54 55 57 58 59 60 60 60 61 61 61 62 62 62 63 64 64
66 62 59 57 56 54 53 52 51 50 48 47 46 45 45 45 45 46 46 46 46 47 48 50 51 52 52 53 54 55 56 57 57 57 58 59 59 60 61 61 61 62 63
Wind_Direction
268 268 269 270 270 271 272 274 275 275 276 278 279 280 281 282 282 283 283 283 283 284 284 284 284 284 284 284 284 283 282 281 280 279 278 277 275 274 272 270 268 266 264
269 270 270 270 271 271 272 274 275 276 277 278 279 280 281 282 282 283 283 284 284 285 284 284 285 285 285 285 284 284 283 282 281 280 279 279 278 276 274 272 270 269 267
271 271 272 272 272 273 274 275 275 276 277 278 279 280 281 282 282 283 283 284 285 285 285 285 285 285 285 285 284 284 283 283 282 281 281 280 279 277 276 274 272 271 269
273 274 274 274 274 275 276 276 276 277 277 278 279 280 280 281 282 282 283 284 284 284 284 285 285 285 285 285 285 284 284 283 282 282 281 280 280 278 277 276 274 273 271
276 277 277 277 277 278 278 278 278 278 278 278 278 279 280 281 281 281 282 283 283 284 284 284 284 284 284 284 284 284 284 283 283 282 281 281 280 279 278 276 275 274 272
279 279 279 279 279 279 279 279 279 279 279 279 279 280 281 281 281 281 282 282 282 283 283 283 283 283 283 283 283 283 283 283 283 283 282 281 280 279 278 277 276 274 272
282 282 282 281 281 281 281 281 282 281 281 280 281 281 280 280 281 281 281 281 281 281 281 282 282 282 282 282 282 282 282 282 282 282 281 280 280 279 278 277 275 274 272
285 285 285 284 284 283 283 283 283 282 282 282 282 281 281 280 281 280 279 279 279 280 280 280 280 281 281 281 281 281 281 281 281 281 280 280 279 278 277 276 275 273 272
287 287 287 286 286 285 285 284 284 284 283 282 282 282 282 282 280 278 279 279 278 278 278 278 279 279 279 279 280 280 280 280 280 280 280 279 278 278 277 275 275 274 272
288 288 287 287 287 287 286 286 285 284 284 283 282 282 283 282 281 279 277 277 277 277 276 276 276 276 277 278 278 278 279 279 279 279 279 278 277 277 276 275 274 273 272
290 289 289 288 288 287 287 286 285 285 284 284 283 283 282 282 281 281 279 277 275 274 274 274 274 274 275 276 276 277 277 277 277 277 277 276 276 276 275 274 273 272 271
293 292 291 291 290 289 288 287 286 285 284 283 283 282 281 281 280 280 279 278 276 274 273 273 273 273 273 273 274 275 275 275 275 275 275 275 275 274 274 272 271 271 271
295 294 294 293 292 291 289 288 287 286 285 284 283 282 281 280 279 278 278 277 276 274 273 273 272 272 271 271 272 272 273 273 274 274 273 273 273 272 272 271 270 270 270
296 295 295 294 293 292 291 289 288 287 285 284 282 281 280 279 278 277 276 276 275 274 273 273 272 271 270 270 270 270 271 272 272 272 271 271 271 271 270 269 268 269 269
296 296 295 294 293 292 291 290 288 287 286 284 282 281 279 278 277 276 275 274 274 273 272 272 271 270 269 269 268 269 270 270 271 270 270 269 269 269 268 267 267 268 268
297 296 295 294 293 292 291 290 288 287 285 284 283 281 280 278 276 275 274 273 273 272 272 271 270 269 268 268 268 268 268 268 269 269 268 267 268 268 267 267 266 266 267
298 297 296 295 294 293 292 290 289 287 286 284 282 281 279 277 276 274 273 273 272 272 271 269 268 268 267 267 267 267 267 268 268 267 267 267 267 267 267 266 266 266 267
299 298 297 296 295 294 293 291 290 288 286 284 282 280 278 277 276 274 273 273 272 271 271 270 268 268 268 267 267 267 267 267 267 267 266 266 266 266 266 266 266 265 266
300 299 299 298 297 296 294 292 290 288 286 284 282 280 279 277 276 275 274 273 272 271 270 269 268 268 267 267 267 267 266 266 266 266 265 265 265 266 265 266 266 266 266
301 301 300 300 299 297 295 293 290 289 287 285 283 282 280 279 277 276 275 274 273 272 271 269 267 266 266 265 265 266 265 265 265 264 264 265 265 265 266 266 266 266 266
303 303 302 301 300 298 296 294 292 290 289 287 285 284 282 281 279 277 276 275 273 272 271 270 268 267 266 265 265 264 264 264 264 264 264 264 265 265 266 266 266 266 266
305 304 303 302 300 299 297 295 294 292 291 289 287 286 284 282 280 278 276 275 274 273 272 271 269 268 266 265 264 264 264 264 264 265 265 265 265 265 265 265 266 265 265
306 305 304 302 301 299 298 296 295 295 294 292 290 288 285 282 280 279 277 275 274 273 272 271 269 268 266 265 265 264 264 264 264 265 265 266 266 266 266 266 266 265 265
306 305 304 303 302 301 299 298 297 296 295 294 291 289 287 283 281 279 278 276 275 274 273 271 270 268 267 266 266 266 265 266 266 267 267 267 267 266 266 266 266 265 265
307 306 305 304 303 302 301 300 298 298 297 295 293 291 289 286 283 280 279 277 275 274 273 272 272 271 269 268 267 267 267 267 267 267 267 267 267 267 266 266 266 266 266
308 307 307 306 305 304 303 301 300 299 298 296 294 292 290 288 286 283 281 279 278 275 274 273 273 272 271 270 269 269 268 268 268 268 268 268 267 267 267 267 267 266 266
Height
5822 5821 5821 5820 5819 5819 5818 5817 5817 5816 5815 5814 5813 5812 5811 5810 5809 5808 5807 5806 5805 5804 5803 5802 5800 5799 5798 5797 5796 5795 5795 5794 5793 5793 5792 5792 5792 5792 5792 5793 5794 5795 5796
5815 5814 5813 5813 5812 5811 5810 5809 5809 5808 5807 5806 5804 5803 5802 5801 5800 5799 5798 5797 5796 5794 5793 5791 5790 5789 5788 5787 5786 5785 5784 5783 5782 5782 5781 5781 5781 5780 5781 5781 5782 5782 5783
5807 5806 5805 5804 5803 5802 5801 5800 5799 5798 5797 5796 5795 5793 5792 5791 5790 5789 5787 5786 5785 5783 5782 5780 5779 5778 5777 5775 5774 5773 5772 5771 5771 5770 5769 5769 5768 5768 5768 5768 5769 5769 5770
5799 5797 5797 5795 5793 5792 5792 5791 5789 5788 5787 5785 5784 5782 5781 5780 5779 5777 5776 5775 5773 5772 5770 5768 5767 5765 5764 5763 5762 5761 5760 5759 5758 5757 5757 5756 5756 5755 5755 5755 5756 5756 5757
5790 5789 5788 5786 5784 5782 5781 5780 5779 5777 5776 5774 5772 5770 5769 5768 5767 5765 5764 5762 5760 5759 5757 5755 5754 5752 5751 5749 5748 5747 5746 5746 5745 5744 5743 5743 5742 5742 5742 5742 5742 5743 5743
5781 5779 5778 5776 5774 5772 5770 5768 5767 5765 5764 5761 5759 5758 5757 5755 5753 5752 5751 5749 5747 5745 5743 5741 5740 5739 5737 5735 5734 5733 5732 5731 5731 5730 5729 5728 5728 5728 5727 5727 5728 5728 5729
5771 5770 5768 5766 5763 5761 5759 5757 5754 5752 5751 5747 5745 5745 5743 5741 5740 5739 5737 5735 5733 5731 5729 5727 5725 5724 5722 5721 5720 5718 5717 5717 5716 5715 5715 5714 5713 5713 5713 5713 5713 5713 5714
5762 5760 5757 5755 5752 5750 5747 5745 5741 5739 5737 5733 5730 5728 5728 5729 5726 5724 5721 5719 5718 5715 5714 5711 5710 5708 5707 5705 5704 5703 5702 5701 5701 5700 5699 5699 5698 5698 5698 5698 5698 5698 5699
5753 5749 5747 5743 5740 5737 5735 5732 5728 5725 5722 5719 5715 5711 5709 5711 5711 5709 5706 5703 5701 5699 5698 5695 5693 5692 5690 5689 5688 5687 5686 5686 5685 5684 5684 5683 5683 5682 5682 5682 5682 5683 5683
5743 5739 5736 5732 5729 5725 5722 5718 5714 5710 5706 5703 5699 5695 5692 5690 5688 5689 5691 5688 5685 5682 5680 5678 5676 5674 5672 5671 5671 5670 5669 5669 5668 5668 5667 5667 5667 5667 5666 5667 5667 5667 5667
5732 5729 5725 5721 5717 5713 5709 5705 5700 5695 5691 5687 5683 5679 5675 5672 5668 5666 5669 5670 5667 5665 5662 5660 5658 5656 5654 5653 5653 5652 5651 5651 5651 5651 5651 5650 5650 5650 5650 5650 5651 5651 5651
5721 5717 5712 5708 5703 5699 5694 5689 5684 5679 5675 5670 5665 5661 5657 5653 5650 5645 5644 5647 5646 5646 5643 5641 5639 5638 5636 5635 5634 5633 5633 5632 5633 5633 5633 5633 5633 5633 5634 5634 5634 5634 5635
5709 5704 5699 5694 5689 5683 5678 5672 5667 5662 5656 5651 5646 5641 5636 5633 5629 5625 5622 5623 5622 5624 5622 5622 5621 5619 5617 5615 5615 5614 5614 5613 5614 5614 5615 5615 5615 5616 5616 5617 5617 5617 5618
5696 5690 5684 5678 5672 5666 5660 5653 5648 5642 5636 5630 5625 5620 5615 5612 5607 5603 5600 5597 5597 5600 5601 5602 5600 5598 5596 5595 5594 5593 5594 5594 5594 5595 5596 5596 5597 5598 5598 5599 5599 5600 5601
5681 5674 5667 5661 5654 5647 5639 5632 5626 5620 5613 5608 5602 5597 5592 5588 5583 5579 5576 5573 5571 5573 5579 5581 5578 5577 5574 5573 5572 5572 5573 5573 5573 5574 5575 5577 5578 5579 5580 5581 5581 5582 5583
5663 5656 5648 5641 5633 5625 5617 5610 5603 5596 5589 5584 5577 5572 5567 5563 5558 5554 5551 5548 5545 5545 5551 5561 5556 5553 5550 5550 5550 5550 5551 5551 5552 5553 5555 5556 5558 5559 5560 5561 5563 5563 5565
5643 5635 5627 5619 5610 5601 5593 5584 5578 5570 5564 5558 5552 5545 5542 5536 5532 5529 5525 5523 5521 5519 5523 5534 5531 5529 5528 5528 5527 5527 5528 5529 5531 5532 5534 5536 5537 5539 5540 5541 5543 5544 5545
5622 5613 5604 5595 5586 5577 5567 5559 5551 5544 5536 5531 5525 5518 5515 5509 5506 5503 5499 5498 5497 5496 5496 5505 5508 5505 5505 5505 5505 5505 5507 5508 5510 5511 5512 5514 5516 5518 5519 5521 5522 5524 5525
5600 5590 5580 5570 5561 5551 5541 5532 5523 5516 5509 5503 5497 5491 5488 5482 5480 5477 5474 5473 5473 5472 5472 5477 5484 5482 5483 5483 5483 5484 5485 5486 5488 5489 5490 5492 5494 5496 5498 5500 5502 5503 5504
5577 5566 5556 5545 5535 5525 5515 5505 5497 5490 5483 5477 5472 5467 5463 5458 5456 5453 5451 5451 5450 5449 5450 5453 5458 5460 5460 5461 5461 5464 5463 5464 5466 5467 5469 5471 5473 5475 5477 5479 5481 5482 5483
5552 5541 5530 5520 5509 5498 5489 5479 5472 5465 5459 5454 5449 5444 5440 5436 5433 5431 5430 5430 5428 5428 5429 5431 5435 5437 5438 5439 5441 5441 5442 5443 5445 5447 5449 5451 5453 5455 5456 5457 5459 5460 5461
5529 5517 5506 5495 5486 5475 5465 5456 5448 5443 5438 5433 5429 5425 5421 5417 5414 5411 5410 5409 5409 5409 5410 5411 5413 5416 5418 5418 5419 5420 5421 5423 5427 5429 5427 5430 5431 5434 5435 5436 5437 5438 5439
5506 5494 5483 5473 5464 5455 5445 5437 5430 5423 5419 5415 5410 5406 5403 5399 5396 5394 5392 5391 5391 5390 5391 5392 5394 5397 5398 5399 5399 5400 5401 5403 5406 5406 5407 5410 5411 5413 5414 5414 5415 5416 5418
5483 5473 5463 5453 5444 5437 5428 5420 5413 5408 5403 5398 5393 5389 5385 5383 5380 5377 5376 5375 5374 5374 5373 5374 5376 5379 5378 5379 5379 5381 5381 5383 5386 5387 5388 5390 5391 5391 5391 5393 5393 5394 5396
5463 5453 5444 5435 5427 5420 5412 5404 5398 5392 5388 5383 5378 5374 5370 5367 5364 5361 5360 5359 5359 5358 5357 5357 5358 5359 5360 5360 5361 5362 5363 5364 5367 5368 5367 5369 5370 5369 5370 5372 5373 5373 5374
5444 5436 5428 5420 5411 5404 5397 5390 5383 5378 5374 5369 5365 5360 5356 5352 5350 5347 5345 5344 5344 5343 5342 5341 5341 5342 5342 5342 5342 5343 5344 5345 5347 5348 5348 5348 5349 5348 5351 5353 5353 5353 5353